TUI238 EGCC-EHAM

Flight info

Callsign TUI238
Flight time N/A
Altitude 33000
Route DESIG L603 LAMSO
Aircraft B38M/M-SDE1FGHILORVWXY/HB1

Departure

Time 2026-04-30 19:09
Airport Manchester Airport (EGCC)

Arrival

Time N/A
Airport Amsterdam Airport Schiphol (EHAM)
Time Latitude Longitude Altitude Speed Heading
2026-04-30 18:53 53.35892 -2.27417 261 ft 0 kts 275°
2026-04-30 18:59 53.35892 -2.27416 261 ft 0 kts 275°
2026-04-30 19:02 53.35889 -2.27367 254 ft 3 kts 275°
2026-04-30 19:02 53.35903 -2.27323 250 ft 1 kts 184°
2026-04-30 19:04 53.35888 -2.27324 250 ft 4 kts 180°
2026-04-30 19:05 53.35795 -2.27334 250 ft 10 kts 207°
2026-04-30 19:05 53.35679 -2.27551 250 ft 16 kts 231°
2026-04-30 19:06 53.35518 -2.27823 250 ft 18 kts 225°
2026-04-30 19:06 53.35417 -2.27987 245 ft 21 kts 224°
2026-04-30 19:06 53.35216 -2.28334 236 ft 18 kts 229°
2026-04-30 19:07 53.35056 -2.28665 237 ft 16 kts 231°
2026-04-30 19:07 53.34977 -2.28808 232 ft 16 kts 226°
2026-04-30 19:08 53.34817 -2.29064 220 ft 14 kts 200°
2026-04-30 19:08 53.34679 -2.28952 224 ft 9 kts 79°
2026-04-30 19:08 53.34710 -2.28870 223 ft 8 kts 52°
2026-04-30 19:09 53.35139 -2.27981 243 ft 131 kts 51°
2026-04-30 19:09 53.35826 -2.26561 640 ft 180 kts 52°
2026-04-30 19:09 53.36635 -2.24757 1537 ft 204 kts 57°
2026-04-30 19:10 53.38583 -2.20676 3784 ft 232 kts 56°
2026-04-30 19:10 53.40805 -2.16035 4629 ft 268 kts 56°
2026-04-30 19:11 53.41984 -2.13548 4753 ft 277 kts 56°
2026-04-30 19:11 53.44356 -2.08520 6902 ft 278 kts 56°
2026-04-30 19:11 53.45566 -2.05942 8018 ft 283 kts 57°
2026-04-30 19:12 53.46799 -2.03315 9158 ft 288 kts 57°
2026-04-30 19:12 53.48062 -2.00619 9883 ft 297 kts 56°
2026-04-30 19:12 53.49358 -1.97915 9999 ft 296 kts 56°
2026-04-30 19:13 53.52047 -1.92299 11013 ft 324 kts 56°
2026-04-30 19:13 53.54108 -1.85563 12489 ft 327 kts 91°
2026-04-30 19:13 53.53712 -1.81906 12718 ft 316 kts 119°
2026-04-30 19:14 53.52347 -1.79085 12931 ft 313 kts 138°
2026-04-30 19:14 53.50933 -1.76288 12929 ft 317 kts 121°
2026-04-30 19:14 53.50128 -1.72814 13020 ft 323 kts 113°
2026-04-30 19:14 53.49372 -1.69238 13715 ft 324 kts 112°
2026-04-30 19:15 53.48658 -1.65630 14670 ft 327 kts 111°
2026-04-30 19:15 53.47276 -1.58224 16256 ft 340 kts 110°
2026-04-30 19:15 53.46579 -1.54404 17026 ft 345 kts 110°
2026-04-30 19:16 53.45875 -1.50508 17748 ft 352 kts 109°
2026-04-30 19:16 53.45159 -1.46535 18480 ft 358 kts 110°
2026-04-30 19:16 53.43703 -1.38458 19869 ft 364 kts 109°